When you browse on this site, cookies collect data to enhance your experience and personalize the content and advertising you see.
Visit our Privacy Policy to learn more. By continuing to use the site, you agree to this use of cookies and data.
  • In Portugal
  • List of Countries
  • For 7 days
  • Water Temperature
  • Satellite Maps
  • Weather Map
  • Weather Widgets
  • user-avatar
    Login

    Hourly Weather Shiraz

    Today, 17 November, Saturday

    Time Temperature Precipitation Wind Pressure Humidity
    00:00 +15°C° 0 mm 1 mps 640 mmHg 74%
    01:00 +14°C° 0 mm 1 mps 640 mmHg 74%
    02:00 +13°C° 0 mm 0 mps 640 mmHg 75%
    03:00 +13°C° 0 mm 0 mps 639 mmHg 76%
    04:00 +12°C° 0 mm 0 mps 639 mmHg 77%
    05:00 +12°C° 0 mm 0 mps 639 mmHg 77%
    06:00 +12°C° 0 mm 0 mps 639 mmHg 77%
    07:00 +12°C° 0 mm 0 mps 639 mmHg 78%
    08:00 +13°C° 0 mm 0 mps 640 mmHg 71%
    09:00 +15°C° 0 mm 0 mps 640 mmHg 63%
    10:00 +18°C° 0 mm 1 mps 641 mmHg 56%
    11:00 +19°C° 0 mm 1 mps 641 mmHg 49%
    12:00 +19°C° 0 mm 2 mps 641 mmHg 43%
    13:00 +20°C° 0 mm 2 mps 641 mmHg 36%
    14:00 +20°C° 0 mm 2 mps 641 mmHg 32%
    15:00 +20°C° 0 mm 3 mps 640 mmHg 27%
    16:00 +20°C° 0 mm 3 mps 640 mmHg 25%
    17:00 +19°C° 0 mm 2 mps 640 mmHg 29%
    18:00 +18°C° 0 mm 2 mps 640 mmHg 32%
    19:00 +18°C° 0 mm 1 mps 639 mmHg 35%
    20:00 +16°C° 0 mm 1 mps 639 mmHg 37%
    21:00 +15°C° 0 mm 1 mps 639 mmHg 38%
    22:00 +15°C° 0 mm 1 mps 639 mmHg 40%
    23:00 +14°C° 0 mm 1 mps 638 mmHg 40%

    Tomorrow, 18 November, Sunday

    Time Temperature Precipitation Wind Pressure Humidity
    00:00 +14°C° 0 mm 1 mps 638 mmHg 40%
    01:00 +13°C° 0 mm 1 mps 638 mmHg 40%
    02:00 +13°C° 0 mm 1 mps 638 mmHg 40%
    03:00 +12°C° 0 mm 1 mps 637 mmHg 40%
    04:00 +12°C° 0 mm 1 mps 637 mmHg 40%
    05:00 +11°C° 0 mm 1 mps 637 mmHg 40%
    06:00 +11°C° 0 mm 1 mps 637 mmHg 40%
    07:00 +11°C° 0 mm 1 mps 637 mmHg 40%
    08:00 +12°C° 0 mm 1 mps 638 mmHg 34%
    09:00 +14°C° 0 mm 1 mps 639 mmHg 29%
    10:00 +16°C° 0 mm 1 mps 639 mmHg 24%
    11:00 +18°C° 0 mm 1 mps 639 mmHg 22%
    12:00 +19°C° 0 mm 1 mps 639 mmHg 21%
    13:00 +19°C° 0 mm 1 mps 639 mmHg 19%
    14:00 +20°C° 0 mm 1 mps 639 mmHg 19%
    15:00 +20°C° 0 mm 1 mps 638 mmHg 19%
    16:00 +20°C° 0 mm 1 mps 638 mmHg 19%
    17:00 +19°C° 0 mm 1 mps 638 mmHg 24%
    18:00 +18°C° 0 mm 1 mps 638 mmHg 29%
    19:00 +15°C° 0 mm 0 mps 638 mmHg 34%
    20:00 +14°C° 0 mm 0 mps 637 mmHg 35%
    21:00 +14°C° 0 mm 0 mps 637 mmHg 36%
    22:00 +13°C° 0 mm 0 mps 637 mmHg 36%
    23:00 +13°C° 0 mm 0 mps 637 mmHg 37%

    Day after tomorrow, 19 November, Monday

    Time Temperature Precipitation Wind Pressure Humidity
    00:00 +12°C° 0 mm 0 mps 637 mmHg 37%
    01:00 +12°C° 0 mm 0 mps 637 mmHg 37%
    02:00 +11°C° 0 mm 0 mps 636 mmHg 37%
    03:00 +11°C° 0 mm 0 mps 636 mmHg 37%
    04:00 +11°C° 0 mm 0 mps 636 mmHg 37%
    05:00 +10°C° 0 mm 0 mps 636 mmHg 37%
    06:00 +10°C° 0 mm 0 mps 636 mmHg 37%
    07:00 +10°C° 0 mm 0 mps 636 mmHg 37%
    08:00 +11°C° 0 mm 0 mps 637 mmHg 32%
    09:00 +13°C° 0 mm 0 mps 638 mmHg 27%
    10:00 +15°C° 0 mm 0 mps 639 mmHg 22%
    11:00 +18°C° 0 mm 1 mps 639 mmHg 21%
    12:00 +19°C° 0 mm 1 mps 639 mmHg 20%
    13:00 +20°C° 0 mm 1 mps 639 mmHg 19%
    14:00 +20°C° 0 mm 1 mps 639 mmHg 19%
    15:00 +20°C° 0 mm 1 mps 639 mmHg 18%
    16:00 +20°C° 0 mm 1 mps 639 mmHg 18%
    17:00 +19°C° 0 mm 1 mps 638 mmHg 23%
    18:00 +18°C° 0 mm 1 mps 638 mmHg 28%
    19:00 +15°C° 0 mm 0 mps 638 mmHg 33%
    20:00 +14°C° 0 mm 0 mps 638 mmHg 33%
    21:00 +14°C° 0 mm 0 mps 638 mmHg 34%
    22:00 +14°C° 0 mm 0 mps 638 mmHg 34%
    23:00 +13°C° 0 mm 0 mps 638 mmHg 35%

    20 November, Tuesday

    Time Temperature Precipitation Wind Pressure Humidity
    00:00 +13°C° 0 mm 0 mps 638 mmHg 36%
    01:00 +12°C° 0 mm 0 mps 637 mmHg 37%
    02:00 +12°C° 0 mm 0 mps 637 mmHg 38%
    03:00 +12°C° 0 mm 0 mps 637 mmHg 38%
    04:00 +11°C° 0 mm 0 mps 637 mmHg 39%
    05:00 +11°C° 0 mm 0 mps 637 mmHg 39%
    06:00 +12°C° 0 mm 1 mps 637 mmHg 39%
    07:00 +11°C° 0 mm 1 mps 637 mmHg 39%
    08:00 +13°C° 0 mm 1 mps 638 mmHg 35%
    09:00 +14°C° 0 mm 1 mps 639 mmHg 30%
    10:00 +16°C° 0 mm 1 mps 640 mmHg 25%
    11:00 +16°C° 0.1 mm 1 mps 639 mmHg 26%
    12:00 +15°C° 0.1 mm 2 mps 639 mmHg 27%
    13:00 +15°C° 0.1 mm 2 mps 638 mmHg 27%
    14:00 +15°C° 0.1 mm 2 mps 638 mmHg 30%
    15:00 +14°C° 0.1 mm 2 mps 638 mmHg 33%
    16:00 +14°C° 0.1 mm 2 mps 637 mmHg 36%
    17:00 +13°C° 0 mm 1 mps 637 mmHg 39%
    18:00 +13°C° 0 mm 1 mps 637 mmHg 43%
    19:00 +12°C° 0 mm 1 mps 637 mmHg 46%
    20:00 +12°C° 0 mm 1 mps 637 mmHg 48%
    21:00 +12°C° 0 mm 1 mps 637 mmHg 49%
    22:00 +11°C° 0 mm 1 mps 637 mmHg 51%
    23:00 +11°C° 0 mm 1 mps 637 mmHg 52%

    21 November, Wednesday

    Time Temperature Precipitation Wind Pressure Humidity
    00:00 +11°C° 0 mm 1 mps 637 mmHg 53%
    01:00 +10°C° 0 mm 1 mps 636 mmHg 54%
    02:00 +10°C° 0 mm 1 mps 636 mmHg 55%
    03:00 +10°C° 0 mm 1 mps 636 mmHg 55%
    04:00 +10°C° 0 mm 1 mps 636 mmHg 55%
    05:00 +9°C° 0 mm 1 mps 636 mmHg 56%
    06:00 +9°C° 0 mm 1 mps 636 mmHg 57%
    07:00 +9°C° 0 mm 1 mps 636 mmHg 57%
    08:00 +9°C° 0 mm 0 mps 637 mmHg 51%
    09:00 +11°C° 0 mm 0 mps 638 mmHg 45%
    10:00 +12°C° 0 mm 0 mps 638 mmHg 39%
    11:00 +14°C° 0 mm 1 mps 638 mmHg 35%
    12:00 +15°C° 0 mm 1 mps 638 mmHg 32%
    13:00 +16°C° 0 mm 1 mps 638 mmHg 28%
    14:00 +16°C° 0 mm 1 mps 638 mmHg 27%
    15:00 +16°C° 0 mm 1 mps 637 mmHg 26%
    16:00 +16°C° 0 mm 1 mps 637 mmHg 25%
    17:00 +16°C° 0 mm 1 mps 637 mmHg 29%
    18:00 +15°C° 0 mm 1 mps 637 mmHg 34%
    19:00 +14°C° 0 mm 1 mps 637 mmHg 38%
    20:00 +12°C° 0 mm 0 mps 637 mmHg 39%
    21:00 +12°C° 0 mm 0 mps 637 mmHg 40%
    22:00 +11°C° 0 mm 0 mps 638 mmHg 41%
    23:00 +11°C° 0 mm 0 mps 637 mmHg 42%

    22 November, Thursday

    Time Temperature Precipitation Wind Pressure Humidity
    00:00 +11°C° 0 mm 0 mps 637 mmHg 42%
    01:00 +10°C° 0 mm 0 mps 637 mmHg 43%
    02:00 +10°C° 0 mm 0 mps 636 mmHg 43%
    03:00 +10°C° 0 mm 0 mps 636 mmHg 44%
    04:00 +9°C° 0 mm 0 mps 636 mmHg 44%
    05:00 +9°C° 0 mm 0 mps 636 mmHg 44%
    06:00 +9°C° 0 mm 0 mps 636 mmHg 45%
    07:00 +9°C° 0 mm 0 mps 636 mmHg 45%
    08:00 +10°C° 0 mm 0 mps 637 mmHg 39%
    09:00 +12°C° 0 mm 0 mps 638 mmHg 34%
    10:00 +15°C° 0 mm 1 mps 639 mmHg 28%
    11:00 +16°C° 0 mm 1 mps 639 mmHg 26%
    12:00 +18°C° 0 mm 1 mps 638 mmHg 23%
    13:00 +19°C° 0 mm 1 mps 638 mmHg 21%
    14:00 +19°C° 0 mm 1 mps 638 mmHg 20%
    15:00 +18°C° 0 mm 2 mps 638 mmHg 19%
    16:00 +18°C° 0 mm 2 mps 637 mmHg 19%
    17:00 +18°C° 0 mm 1 mps 637 mmHg 23%
    18:00 +16°C° 0 mm 1 mps 637 mmHg 27%
    19:00 +15°C° 0 mm 1 mps 637 mmHg 30%
    20:00 +14°C° 0 mm 1 mps 637 mmHg 32%
    21:00 +14°C° 0 mm 1 mps 637 mmHg 33%
    22:00 +13°C° 0 mm 1 mps 637 mmHg 34%
    23:00 +13°C° 0 mm 1 mps 637 mmHg 34%
    Show more